Wetterdaten: Woche 19.03.18 - 25.03.18 (KW12)
Datum Zeit Temp. A. Pool Temp. Feuchte A. Luftdruck Regen Wind Richtung Sonnenschein ET UV Solar Taupunkt Windchill Windben Empfang
19.03.2018 00:00 -4,6 C 3,5 C 77 % 1008,5 hPa 0,0 l/m 17,7 km/h (3 Bft) O 0,00 h 0,000 mm 0,0 UV-I 0 W/m -8,1 C -14,1 C 22,9 km/h (4 Bft) 97,24 %
19.03.2018 01:00 -5,0 C 3,3 C 76 % 1008,5 hPa 0,0 l/m 18,8 km/h (3 Bft) O 0,00 h 0,025 mm 0,0 UV-I 0 W/m -8,5 C -15,3 C 24,7 km/h (4 Bft) 96,39 %
19.03.2018 02:00 -5,3 C 3,3 C 75 % 1008,5 hPa 0,0 l/m 18,4 km/h (3 Bft) O 0,00 h 0,026 mm 0,0 UV-I 0 W/m -8,9 C -15,4 C 24,1 km/h (4 Bft) 98,59 %
19.03.2018 03:00 -5,5 C 3,3 C 75 % 1008,6 hPa 0,0 l/m 19,1 km/h (3 Bft) O 0,00 h 0,025 mm 0,0 UV-I 0 W/m -9,2 C -16,2 C 25,3 km/h (4 Bft) 97,76 %
19.03.2018 04:00 -5,8 C 3,3 C 76 % 1008,6 hPa 0,0 l/m 18,1 km/h (3 Bft) O 0,00 h 0,026 mm 0,0 UV-I 0 W/m -9,3 C -15,9 C 23,6 km/h (4 Bft) 97,66 %
19.03.2018 05:00 -6,2 C 3,3 C 79 % 1008,6 hPa 0,0 l/m 15,7 km/h (3 Bft) O 0,00 h 0,025 mm 0,0 UV-I 0 W/m -9,2 C -14,9 C 20,4 km/h (4 Bft) 96,30 %
19.03.2018 06:00 -6,3 C 3,3 C 79 % 1008,7 hPa 0,0 l/m 15,2 km/h (3 Bft) O 0,00 h 0,025 mm 0,0 UV-I 16 W/m -9,3 C -14,6 C 19,2 km/h (3 Bft) 98,82 %
19.03.2018 07:00 -6,2 C 3,3 C 79 % 1009,2 hPa 0,0 l/m 15,6 km/h (3 Bft) O 0,00 h 0,026 mm 0,0 UV-I 60 W/m -9,3 C -14,9 C 20,1 km/h (4 Bft) 97,42 %
19.03.2018 08:00 -6,1 C 3,3 C 79 % 1009,7 hPa 0,0 l/m 15,6 km/h (3 Bft) O 0,00 h 0,025 mm 0,5 UV-I 134 W/m -9,1 C -14,7 C 20,0 km/h (4 Bft) 97,70 %
19.03.2018 09:00 -5,7 C 3,3 C 78 % 1009,8 hPa 0,0 l/m 14,3 km/h (3 Bft) O 0,00 h 0,051 mm 0,6 UV-I 205 W/m -8,9 C -13,3 C 18,1 km/h (3 Bft) 96,39 %
19.03.2018 10:00 -5,4 C 3,3 C 76 % 1010,0 hPa 0,0 l/m 13,5 km/h (3 Bft) O-NO 0,00 h 0,076 mm 0,9 UV-I 247 W/m -8,9 C -12,3 C 17,6 km/h (3 Bft) 98,83 %
19.03.2018 11:00 -4,7 C 3,3 C 75 % 1010,0 hPa 0,0 l/m 12,1 km/h (2 Bft) O-NO 0,00 h 0,076 mm 1,3 UV-I 325 W/m -8,4 C -10,4 C 15,7 km/h (3 Bft) 97,71 %
19.03.2018 12:00 -4,0 C 3,3 C 73 % 1009,9 hPa 0,0 l/m 10,7 km/h (2 Bft) O-NO 0,43 h 0,102 mm 1,4 UV-I 361 W/m -8,0 C -8,3 C 14,9 km/h (3 Bft) 96,56 %
19.03.2018 13:00 -3,8 C 3,3 C 71 % 1009,6 hPa 0,0 l/m 9,1 km/h (2 Bft) O-NO 0,18 h 0,127 mm 1,2 UV-I 323 W/m -8,2 C -6,8 C 12,9 km/h (3 Bft) 96,67 %
19.03.2018 14:00 -3,3 C 3,3 C 71 % 1009,5 hPa 0,0 l/m 6,6 km/h (2 Bft) O-NO 0,00 h 0,102 mm 0,8 UV-I 243 W/m -7,7 C -4,3 C 9,4 km/h (2 Bft) 97,98 %
19.03.2018 15:00 -3,2 C 3,3 C 71 % 1009,4 hPa 0,0 l/m 5,1 km/h (1 Bft) O 0,00 h 0,076 mm 0,5 UV-I 134 W/m -7,7 C -3,4 C 7,3 km/h (2 Bft) 98,85 %
19.03.2018 16:00 -3,4 C 3,3 C 74 % 1009,5 hPa 0,0 l/m 4,5 km/h (1 Bft) O-NO 0,00 h 0,051 mm 0,0 UV-I 61 W/m -7,4 C -3,4 C 6,3 km/h (2 Bft) 96,70 %
19.03.2018 17:00 -4,1 C 3,3 C 84 % 1010,0 hPa 0,0 l/m 3,1 km/h (1 Bft) O 0,00 h 0,025 mm 0,0 UV-I 25 W/m -6,5 C -4,1 C 4,7 km/h (1 Bft) 97,25 %
19.03.2018 18:00 -4,6 C 3,3 C 89 % 1010,6 hPa 0,0 l/m 1,6 km/h (1 Bft) O-NO 0,00 h 0,000 mm 0,0 UV-I 6 W/m -6,1 C -4,6 C 2,5 km/h (1 Bft) 97,41 %
19.03.2018 19:00 -4,7 C 3,3 C 91 % 1011,1 hPa 0,0 l/m 0,3 km/h (0 Bft) NO 0,00 h 0,000 mm 0,0 UV-I 0 W/m -5,9 C -4,7 C 0,5 km/h (0 Bft) 98,75 %
19.03.2018 20:00 -4,8 C 3,3 C 92 % 1011,4 hPa 0,0 l/m 0,2 km/h (0 Bft) NO 0,00 h 0,000 mm 0,0 UV-I 0 W/m -5,9 C -4,8 C 0,4 km/h (0 Bft) 96,09 %
19.03.2018 21:00 -4,8 C 3,3 C 93 % 1011,5 hPa 0,0 l/m 0,3 km/h (0 Bft) N 0,00 h 0,000 mm 0,0 UV-I 0 W/m -5,8 C -4,8 C 0,6 km/h (0 Bft) 98,54 %
19.03.2018 22:00 -4,9 C 3,3 C 93 % 1011,5 hPa 0,0 l/m 0,2 km/h (0 Bft) N 0,00 h 0,000 mm 0,0 UV-I 0 W/m -5,9 C -4,9 C 0,5 km/h (0 Bft) 98,37 %
19.03.2018 23:00 -5,1 C 3,3 C 93 % 1011,5 hPa 0,0 l/m 1,9 km/h (1 Bft) S-SW 0,00 h 0,000 mm 0,0 UV-I 0 W/m -6,1 C -5,1 C 2,9 km/h (1 Bft) 96,87 %
20.03.2018 00:00 -5,2 C 3,3 C 93 % 1011,4 hPa 0,0 l/m 3,0 km/h (1 Bft) W-SW 0,00 h 0,000 mm 0,0 UV-I 0 W/m -6,2 C -5,2 C 4,5 km/h (1 Bft) 96,89 %
20.03.2018 01:00 -5,3 C 3,3 C 92 % 1011,3 hPa 0,0 l/m 3,5 km/h (1 Bft) W 0,00 h 0,000 mm 0,0 UV-I 0 W/m -6,3 C -5,3 C 4,9 km/h (1 Bft) 98,03 %
20.03.2018 02:00 -5,3 C 3,3 C 92 % 1011,2 hPa 0,0 l/m 4,3 km/h (1 Bft) W-SW 0,00 h 0,000 mm 0,0 UV-I 0 W/m -6,4 C -5,3 C 5,9 km/h (2 Bft) 98,93 %
20.03.2018 03:00 -5,3 C 3,3 C 92 % 1011,0 hPa 0,0 l/m 4,8 km/h (1 Bft) SW 0,00 h 0,000 mm 0,0 UV-I 0 W/m -6,3 C -5,4 C 6,9 km/h (2 Bft) 95,55 %
20.03.2018 04:00 -5,2 C 3,3 C 92 % 1011,1 hPa 0,0 l/m 5,6 km/h (1 Bft) SW 0,00 h 0,000 mm 0,0 UV-I 0 W/m -6,3 C -5,4 C 7,9 km/h (2 Bft) 98,35 %
20.03.2018 05:00 -5,2 C 3,4 C 92 % 1011,2 hPa 0,0 l/m 5,3 km/h (1 Bft) W 0,00 h 0,000 mm 0,0 UV-I 0 W/m -6,3 C -5,3 C 7,8 km/h (2 Bft) 97,50 %
20.03.2018 06:00 -5,0 C 3,4 C 92 % 1011,7 hPa 0,0 l/m 4,9 km/h (1 Bft) W 0,00 h 0,000 mm 0,0 UV-I 10 W/m -6,1 C -5,1 C 6,9 km/h (2 Bft) 98,88 %
20.03.2018 07:00 -4,6 C 3,6 C 92 % 1012,3 hPa 0,0 l/m 7,0 km/h (2 Bft) W-SW 0,00 h 0,000 mm 0,0 UV-I 35 W/m -5,8 C -5,6 C 10,6 km/h (2 Bft) 94,58 %
20.03.2018 08:00 -4,0 C 3,6 C 89 % 1013,0 hPa 0,0 l/m 8,3 km/h (2 Bft) W-SW 0,00 h 0,025 mm 0,0 UV-I 99 W/m -5,5 C -6,2 C 12,2 km/h (2 Bft) 98,74 %
20.03.2018 09:00 -2,8 C 3,9 C 85 % 1013,4 hPa 0,0 l/m 8,8 km/h (2 Bft) W 0,27 h 0,026 mm 0,8 UV-I 253 W/m -5,0 C -5,4 C 12,9 km/h (3 Bft) 97,52 %
20.03.2018 10:00 -2,1 C 3,8 C 79 % 1013,8 hPa 0,0 l/m 9,8 km/h (2 Bft) W 0,17 h 0,076 mm 1,0 UV-I 305 W/m -5,2 C -5,5 C 13,9 km/h (3 Bft) 98,52 %
20.03.2018 11:00 -1,6 C 3,9 C 77 % 1014,2 hPa 0,8 l/m 8,6 km/h (2 Bft) W 0,32 h 0,102 mm 1,3 UV-I 346 W/m -5,1 C -4,1 C 12,8 km/h (3 Bft) 96,83 %
20.03.2018 12:00 -1,3 C 3,9 C 77 % 1014,4 hPa 0,4 l/m 11,7 km/h (2 Bft) W 0,58 h 0,127 mm 1,6 UV-I 415 W/m -4,8 C -6,0 C 16,4 km/h (3 Bft) 96,26 %
20.03.2018 13:00 -0,4 C 3,9 C 74 % 1014,5 hPa 0,0 l/m 13,1 km/h (3 Bft) W 1,00 h 0,152 mm 1,6 UV-I 501 W/m -4,4 C -6,1 C 18,4 km/h (3 Bft) 98,16 %
20.03.2018 14:00 -0,2 C 3,9 C 76 % 1014,9 hPa 0,0 l/m 13,3 km/h (3 Bft) W-SW 0,50 h 0,178 mm 1,0 UV-I 335 W/m -3,9 C -5,9 C 18,9 km/h (3 Bft) 97,86 %
20.03.2018 15:00 0,5 C 3,9 C 66 % 1015,2 hPa 0,0 l/m 16,2 km/h (3 Bft) W-SW 0,95 h 0,127 mm 0,8 UV-I 383 W/m -5,1 C -6,9 C 22,3 km/h (4 Bft) 98,62 %
20.03.2018 16:00 0,6 C 3,9 C 66 % 1015,7 hPa 0,0 l/m 16,4 km/h (3 Bft) W-SW 1,00 h 0,178 mm 0,5 UV-I 268 W/m -5,0 C -7,0 C 22,9 km/h (4 Bft) 98,02 %
20.03.2018 17:00 -0,2 C 3,9 C 72 % 1016,6 hPa 0,0 l/m 14,7 km/h (3 Bft) SW 0,92 h 0,127 mm 0,0 UV-I 78 W/m -4,6 C -7,0 C 21,0 km/h (4 Bft) 98,23 %
20.03.2018 18:00 -1,0 C 3,9 C 74 % 1017,5 hPa 0,0 l/m 13,5 km/h (3 Bft) W-SW 0,12 h 0,050 mm 0,0 UV-I 8 W/m -5,1 C -7,1 C 19,0 km/h (3 Bft) 95,70 %
20.03.2018 19:00 -1,5 C 3,9 C 75 % 1018,6 hPa 0,0 l/m 15,1 km/h (3 Bft) W-SW 0,00 h 0,026 mm 0,0 UV-I 0 W/m -5,4 C -8,8 C 21,0 km/h (4 Bft) 98,45 %
20.03.2018 20:00 -2,1 C 3,9 C 77 % 1019,6 hPa 0,0 l/m 15,4 km/h (3 Bft) W-SW 0,00 h 0,025 mm 0,0 UV-I 0 W/m -5,6 C -9,7 C 20,6 km/h (4 Bft) 98,68 %
20.03.2018 21:00 -2,5 C 3,9 C 77 % 1020,5 hPa 0,0 l/m 12,0 km/h (2 Bft) W-SW 0,00 h 0,026 mm 0,0 UV-I 0 W/m -5,9 C -7,7 C 16,9 km/h (3 Bft) 96,82 %
20.03.2018 22:00 -2,9 C 3,9 C 78 % 1021,0 hPa 0,0 l/m 11,1 km/h (2 Bft) W-SW 0,00 h 0,025 mm 0,0 UV-I 0 W/m -6,2 C -7,6 C 15,3 km/h (3 Bft) 97,44 %
20.03.2018 23:00 -3,2 C 3,9 C 79 % 1021,4 hPa 0,0 l/m 12,0 km/h (2 Bft) W-SW 0,00 h 0,025 mm 0,0 UV-I 0 W/m -6,3 C -8,7 C 16,1 km/h (3 Bft) 97,75 %
21.03.2018 00:00 -2,5 C 3,9 C 77 % 1021,6 hPa 0,0 l/m 13,1 km/h (3 Bft) W 0,00 h 0,000 mm 0,0 UV-I 0 W/m -5,9 C -8,6 C 17,6 km/h (3 Bft) 98,32 %
21.03.2018 01:00 -2,1 C 3,9 C 74 % 1021,8 hPa 0,0 l/m 13,1 km/h (3 Bft) W-SW 0,00 h 0,025 mm 0,0 UV-I 0 W/m -6,0 C -8,2 C 18,1 km/h (3 Bft) 98,12 %
21.03.2018 02:00 -1,9 C 3,9 C 74 % 1021,9 hPa 0,0 l/m 11,8 km/h (2 Bft) W 0,00 h 0,026 mm 0,0 UV-I 0 W/m -5,8 C -6,9 C 15,8 km/h (3 Bft) 96,37 %
21.03.2018 03:00 -1,9 C 3,9 C 76 % 1021,8 hPa 0,0 l/m 8,2 km/h (2 Bft) W 0,00 h 0,025 mm 0,0 UV-I 0 W/m -5,4 C -3,9 C 11,7 km/h (2 Bft) 99,08 %
21.03.2018 04:00 -2,1 C 3,9 C 79 % 1021,9 hPa 0,0 l/m 5,7 km/h (1 Bft) W-SW 0,00 h 0,026 mm 0,0 UV-I 0 W/m -5,2 C -2,4 C 8,2 km/h (2 Bft) 96,70 %
21.03.2018 05:00 -2,2 C 3,9 C 83 % 1022,4 hPa 0,0 l/m 5,9 km/h (2 Bft) W-SW 0,00 h 0,000 mm 0,0 UV-I 0 W/m -4,6 C -2,5 C 8,5 km/h (2 Bft) 98,59 %
21.03.2018 06:00 -2,4 C 3,9 C 89 % 1022,9 hPa 0,0 l/m 6,3 km/h (2 Bft) W-SW 0,00 h 0,000 mm 0,0 UV-I 15 W/m -4,0 C -2,9 C 9,3 km/h (2 Bft) 95,21 %
21.03.2018 07:00 -2,5 C 3,9 C 92 % 1023,6 hPa 0,0 l/m 6,3 km/h (2 Bft) SW 0,00 h 0,000 mm 0,0 UV-I 97 W/m -3,6 C -3,0 C 9,3 km/h (2 Bft) 98,44 %
21.03.2018 08:00 -1,6 C 3,9 C 90 % 1024,3 hPa 0,2 l/m 7,3 km/h (2 Bft) SW 0,65 h 0,025 mm 0,5 UV-I 268 W/m -3,1 C -3,0 C 10,6 km/h (2 Bft) 97,96 %
21.03.2018 09:00 -1,0 C 3,9 C 88 % 1025,1 hPa 0,0 l/m 6,2 km/h (2 Bft) W-SW 0,00 h 0,076 mm 0,6 UV-I 191 W/m -2,7 C -1,5 C 8,8 km/h (2 Bft) 98,84 %
21.03.2018 10:00 0,2 C 3,9 C 84 % 1025,4 hPa 0,0 l/m 4,6 km/h (1 Bft) SW 0,77 h 0,076 mm 1,2 UV-I 382 W/m -2,2 C -0,0 C 6,7 km/h (2 Bft) 96,13 %
21.03.2018 11:00 0,9 C 3,9 C 79 % 1025,3 hPa 0,0 l/m 5,4 km/h (1 Bft) SW 0,47 h 0,127 mm 1,6 UV-I 444 W/m -2,4 C 0,3 C 8,4 km/h (2 Bft) 96,86 %
21.03.2018 12:00 1,3 C 3,9 C 76 % 1025,2 hPa 0,0 l/m 5,3 km/h (1 Bft) NO 0,32 h 0,153 mm 1,2 UV-I 322 W/m -2,5 C 0,7 C 7,6 km/h (2 Bft) 95,61 %
21.03.2018 13:00 1,8 C 3,9 C 76 % 1025,1 hPa 0,2 l/m 3,3 km/h (1 Bft) S-SW 0,67 h 0,127 mm 1,6 UV-I 521 W/m -2,0 C 1,6 C 5,3 km/h (1 Bft) 97,58 %
21.03.2018 14:00 0,9 C 3,9 C 82 % 1025,3 hPa 0,0 l/m 6,8 km/h (2 Bft) W 0,00 h 0,203 mm 0,7 UV-I 139 W/m -1,7 C -0,1 C 10,9 km/h (2 Bft) 96,98 %
21.03.2018 15:00 1,3 C 3,9 C 79 % 1025,2 hPa 0,0 l/m 5,4 km/h (1 Bft) W 0,32 h 0,051 mm 0,6 UV-I 242 W/m -1,9 C 1,0 C 8,0 km/h (2 Bft) 98,60 %
21.03.2018 16:00 2,2 C 3,9 C 72 % 1025,2 hPa 0,0 l/m 5,8 km/h (1 Bft) W-SW 1,00 h 0,101 mm 0,5 UV-I 234 W/m -2,3 C 1,8 C 8,4 km/h (2 Bft) 97,90 %
21.03.2018 17:00 1,5 C 3,9 C 70 % 1025,7 hPa 0,0 l/m 5,3 km/h (1 Bft) W-SW 0,23 h 0,102 mm 0,0 UV-I 58 W/m -3,3 C 1,4 C 7,3 km/h (2 Bft) 98,86 %
21.03.2018 18:00 0,5 C 3,9 C 75 % 1026,2 hPa 0,0 l/m 3,9 km/h (1 Bft) S-SW 0,13 h 0,025 mm 0,0 UV-I 11 W/m -3,5 C 0,5 C 5,1 km/h (1 Bft) 98,12 %
21.03.2018 19:00 0,3 C 3,9 C 80 % 1026,7 hPa 0,0 l/m 6,5 km/h (2 Bft) S-SW 0,00 h 0,000 mm 0,0 UV-I 0 W/m -2,8 C -0,3 C 8,7 km/h (2 Bft) 98,32 %
21.03.2018 20:00 0,4 C 3,9 C 81 % 1026,8 hPa 0,0 l/m 6,9 km/h (2 Bft) S-SW 0,00 h 0,000 mm 0,0 UV-I 0 W/m -2,5 C -0,4 C 9,8 km/h (2 Bft) 95,44 %
21.03.2018 21:00 0,2 C 3,9 C 82 % 1026,5 hPa 0,0 l/m 5,1 km/h (1 Bft) S-SW 0,00 h 0,000 mm 0,0 UV-I 0 W/m -2,5 C 0,1 C 7,5 km/h (2 Bft) 99,00 %
21.03.2018 22:00 -1,2 C 3,9 C 86 % 1026,4 hPa 0,0 l/m 1,3 km/h (1 Bft) S-SW 0,00 h 0,000 mm 0,0 UV-I 0 W/m -3,3 C -1,2 C 1,9 km/h (1 Bft) 97,47 %
21.03.2018 23:00 -2,3 C 3,9 C 90 % 1026,3 hPa 0,0 l/m 1,6 km/h (1 Bft) S-SW 0,00 h 0,000 mm 0,0 UV-I 0 W/m -3,7 C -2,3 C 2,4 km/h (1 Bft) 98,05 %
22.03.2018 00:00 -1,9 C 3,9 C 87 % 1025,8 hPa 0,0 l/m 5,9 km/h (2 Bft) W-SW 0,00 h 0,000 mm 0,0 UV-I 0 W/m -3,7 C -2,1 C 8,1 km/h (2 Bft) 96,61 %
22.03.2018 01:00 -2,7 C 3,9 C 89 % 1025,5 hPa 0,0 l/m 5,1 km/h (1 Bft) SW 0,00 h 0,000 mm 0,0 UV-I 0 W/m -4,3 C -2,7 C 6,4 km/h (2 Bft) 97,27 %
22.03.2018 02:00 -3,2 C 3,9 C 90 % 1024,8 hPa 0,0 l/m 4,1 km/h (1 Bft) S-SW 0,00 h 0,000 mm 0,0 UV-I 0 W/m -4,5 C -3,2 C 5,3 km/h (1 Bft) 98,80 %
22.03.2018 03:00 -3,3 C 3,9 C 90 % 1024,2 hPa 0,0 l/m 4,1 km/h (1 Bft) S-SW 0,00 h 0,000 mm 0,0 UV-I 0 W/m -4,7 C -3,3 C 5,4 km/h (1 Bft) 96,22 %
22.03.2018 04:00 -3,9 C 3,9 C 90 % 1023,7 hPa 0,0 l/m 4,2 km/h (1 Bft) S-SW 0,00 h 0,000 mm 0,0 UV-I 0 W/m -5,3 C -3,9 C 5,5 km/h (1 Bft) 95,63 %
22.03.2018 05:00 -4,2 C 3,9 C 89 % 1023,2 hPa 0,0 l/m 4,7 km/h (1 Bft) S-SW 0,00 h 0,000 mm 0,0 UV-I 6 W/m -5,7 C -4,2 C 6,0 km/h (2 Bft) 98,76 %
22.03.2018 06:00 -3,9 C 3,9 C 88 % 1022,8 hPa 0,0 l/m 5,1 km/h (1 Bft) S-SW 0,78 h 0,000 mm 0,0 UV-I 54 W/m -5,7 C -4,0 C 6,5 km/h (2 Bft) 97,16 %
22.03.2018 07:00 -2,5 C 3,9 C 85 % 1022,3 hPa 0,0 l/m 5,5 km/h (1 Bft) SW 1,00 h 0,025 mm 0,0 UV-I 197 W/m -4,6 C -2,6 C 7,9 km/h (2 Bft) 97,37 %
22.03.2018 08:00 -1,0 C 3,9 C 81 % 1021,9 hPa 0,0 l/m 7,0 km/h (2 Bft) W-SW 1,00 h 0,077 mm 0,7 UV-I 360 W/m -3,8 C -2,1 C 10,1 km/h (2 Bft) 97,36 %
22.03.2018 09:00 0,7 C 3,9 C 75 % 1021,2 hPa 0,0 l/m 5,2 km/h (1 Bft) SW 1,00 h 0,127 mm 1,2 UV-I 507 W/m -3,2 C 0,4 C 7,8 km/h (2 Bft) 98,74 %
22.03.2018 10:00 2,0 C 3,9 C 67 % 1020,4 hPa 0,0 l/m 5,2 km/h (1 Bft) SW 1,00 h 0,177 mm 1,8 UV-I 618 W/m -3,4 C 1,6 C 7,9 km/h (2 Bft) 98,28 %
22.03.2018 11:00 3,0 C 3,9 C 62 % 1019,4 hPa 0,0 l/m 6,7 km/h (2 Bft) W-SW 1,00 h 0,229 mm 2,2 UV-I 674 W/m -3,6 C 2,0 C 10,2 km/h (2 Bft) 95,74 %
22.03.2018 12:00 3,9 C 4,0 C 59 % 1018,2 hPa 0,0 l/m 6,9 km/h (2 Bft) W-SW 0,93 h 0,279 mm 2,1 UV-I 677 W/m -3,4 C 2,8 C 10,9 km/h (2 Bft) 96,30 %
22.03.2018 13:00 4,8 C 4,4 C 58 % 1016,9 hPa 0,0 l/m 7,0 km/h (2 Bft) W 0,97 h 0,280 mm 1,9 UV-I 653 W/m -2,9 C 3,6 C 10,5 km/h (2 Bft) 95,46 %
22.03.2018 14:00 5,3 C 4,4 C 55 % 1016,0 hPa 0,0 l/m 6,5 km/h (2 Bft) W 1,00 h 0,279 mm 1,4 UV-I 557 W/m -3,1 C 4,2 C 10,4 km/h (2 Bft) 95,72 %
22.03.2018 15:00 5,2 C 4,4 C 53 % 1015,1 hPa 0,0 l/m 6,7 km/h (2 Bft) W-NW 0,65 h 0,254 mm 0,7 UV-I 292 W/m -3,5 C 4,4 C 11,2 km/h (2 Bft) 97,33 %
22.03.2018 16:00 5,1 C 4,4 C 51 % 1014,3 hPa 0,0 l/m 6,6 km/h (2 Bft) W 0,43 h 0,153 mm 0,5 UV-I 180 W/m -4,1 C 4,2 C 10,2 km/h (2 Bft) 95,47 %
22.03.2018 17:00 4,5 C 4,4 C 52 % 1014,0 hPa 0,0 l/m 5,4 km/h (1 Bft) W 0,20 h 0,101 mm 0,0 UV-I 63 W/m -4,5 C 4,2 C 8,7 km/h (2 Bft) 99,07 %
22.03.2018 18:00 3,8 C 4,4 C 53 % 1013,9 hPa 0,0 l/m 4,9 km/h (1 Bft) W-NW 0,17 h 0,051 mm 0,0 UV-I 11 W/m -4,9 C 3,4 C 7,8 km/h (2 Bft) 96,71 %
22.03.2018 19:00 3,1 C 4,4 C 59 % 1013,9 hPa 0,0 l/m 5,0 km/h (1 Bft) W-NW 0,00 h 0,025 mm 0,0 UV-I 0 W/m -4,2 C 2,9 C 8,7 km/h (2 Bft) 98,20 %
22.03.2018 20:00 2,5 C 4,4 C 62 % 1013,9 hPa 0,0 l/m 7,8 km/h (2 Bft) W 0,00 h 0,026 mm 0,0 UV-I 0 W/m -4,0 C 0,9 C 12,9 km/h (3 Bft) 95,21 %
22.03.2018 21:00 1,8 C 4,4 C 69 % 1014,1 hPa 0,0 l/m 6,8 km/h (2 Bft) W 0,00 h 0,025 mm 0,0 UV-I 0 W/m -3,2 C 0,7 C 10,9 km/h (2 Bft) 97,96 %
22.03.2018 22:00 1,3 C 4,4 C 78 % 1013,9 hPa 0,0 l/m 11,0 km/h (2 Bft) W 0,00 h 0,026 mm 0,0 UV-I 0 W/m -2,1 C -2,7 C 16,1 km/h (3 Bft) 96,96 %
22.03.2018 23:00 0,4 C 4,4 C 90 % 1013,3 hPa 0,0 l/m 6,9 km/h (2 Bft) W 0,00 h 0,025 mm 0,0 UV-I 0 W/m -1,1 C -0,6 C 10,3 km/h (2 Bft) 98,25 %
23.03.2018 00:00 0,1 C 4,4 C 93 % 1012,4 hPa 0,0 l/m 7,8 km/h (2 Bft) W-SW 0,00 h 0,000 mm 0,0 UV-I 0 W/m -0,9 C -1,8 C 11,2 km/h (2 Bft) 94,69 %
23.03.2018 01:00 0,3 C 4,4 C 90 % 1011,7 hPa 0,0 l/m 11,4 km/h (2 Bft) W-SW 0,00 h 0,000 mm 0,0 UV-I 0 W/m -1,1 C -4,1 C 16,3 km/h (3 Bft) 97,46 %
23.03.2018 02:00 0,4 C 4,4 C 90 % 1011,2 hPa 0,0 l/m 8,0 km/h (2 Bft) W-SW 0,00 h 0,000 mm 0,0 UV-I 0 W/m -1,1 C -1,4 C 11,2 km/h (2 Bft) 97,97 %
23.03.2018 03:00 0,6 C 4,4 C 89 % 1010,9 hPa 0,0 l/m 7,1 km/h (2 Bft) W-SW 0,00 h 0,000 mm 0,0 UV-I 0 W/m -1,1 C -0,3 C 10,4 km/h (2 Bft) 98,13 %
23.03.2018 04:00 0,7 C 4,4 C 88 % 1010,4 hPa 0,0 l/m 8,4 km/h (2 Bft) W 0,00 h 0,000 mm 0,0 UV-I 0 W/m -1,1 C -1,2 C 11,9 km/h (2 Bft) 95,67 %
23.03.2018 05:00 0,7 C 4,4 C 89 % 1010,0 hPa 0,0 l/m 7,5 km/h (2 Bft) W 0,00 h 0,000 mm 0,0 UV-I 0 W/m -0,9 C -0,5 C 11,0 km/h (2 Bft) 97,65 %
23.03.2018 06:00 0,5 C 4,4 C 91 % 1009,6 hPa 0,0 l/m 8,0 km/h (2 Bft) W 0,00 h 0,000 mm 0,0 UV-I 13 W/m -0,8 C -1,2 C 11,5 km/h (2 Bft) 98,43 %
23.03.2018 07:00 0,4 C 4,4 C 94 % 1009,2 hPa 0,0 l/m 10,6 km/h (2 Bft) W 0,00 h 0,000 mm 0,0 UV-I 51 W/m -0,5 C -3,3 C 14,9 km/h (3 Bft) 97,62 %
23.03.2018 08:00 0,9 C 4,4 C 94 % 1009,1 hPa 0,0 l/m 11,7 km/h (2 Bft) W-SW 0,00 h 0,025 mm 0,0 UV-I 95 W/m 0,0 C -3,7 C 16,0 km/h (3 Bft) 96,67 %
23.03.2018 09:00 1,6 C 4,4 C 92 % 1009,2 hPa 0,6 l/m 11,7 km/h (2 Bft) W 0,00 h 0,026 mm 0,0 UV-I 92 W/m 0,5 C -2,8 C 15,9 km/h (3 Bft) 97,34 %
23.03.2018 10:00 2,1 C 4,4 C 91 % 1008,9 hPa 0,4 l/m 11,0 km/h (2 Bft) W 0,00 h 0,051 mm 0,7 UV-I 169 W/m 0,9 C -1,7 C 14,8 km/h (3 Bft) 98,54 %
23.03.2018 11:00 2,6 C 4,4 C 93 % 1008,5 hPa 0,0 l/m 11,3 km/h (2 Bft) W 0,13 h 0,076 mm 1,1 UV-I 254 W/m 1,6 C -1,4 C 15,7 km/h (3 Bft) 97,37 %
23.03.2018 12:00 3,2 C 4,4 C 90 % 1008,0 hPa 0,0 l/m 12,9 km/h (3 Bft) W 0,02 h 0,101 mm 1,0 UV-I 236 W/m 1,7 C -1,8 C 17,8 km/h (3 Bft) 96,65 %
23.03.2018 13:00 3,2 C 4,4 C 87 % 1007,5 hPa 0,0 l/m 10,7 km/h (2 Bft) W 0,00 h 0,102 mm 0,5 UV-I 80 W/m 1,3 C -0,3 C 15,3 km/h (3 Bft) 96,92 %
23.03.2018 14:00 3,1 C 4,4 C 88 % 1007,0 hPa 0,0 l/m 9,8 km/h (2 Bft) W 0,00 h 0,051 mm 0,4 UV-I 68 W/m 1,3 C 0,2 C 14,5 km/h (3 Bft) 98,97 %
23.03.2018 15:00 3,0 C 4,4 C 90 % 1006,6 hPa 0,0 l/m 10,2 km/h (2 Bft) W 0,00 h 0,025 mm 0,0 UV-I 67 W/m 1,5 C -0,2 C 14,9 km/h (3 Bft) 97,14 %
23.03.2018 16:00 3,0 C 4,4 C 91 % 1006,4 hPa 0,0 l/m 7,9 km/h (2 Bft) W 0,00 h 0,026 mm 0,0 UV-I 51 W/m 1,6 C 1,5 C 11,8 km/h (2 Bft) 96,68 %
23.03.2018 17:00 3,1 C 4,4 C 90 % 1006,1 hPa 0,0 l/m 4,8 km/h (1 Bft) W-SW 0,00 h 0,025 mm 0,0 UV-I 23 W/m 1,6 C 2,8 C 7,1 km/h (2 Bft) 96,94 %
23.03.2018 18:00 2,9 C 4,4 C 91 % 1006,1 hPa 0,0 l/m 4,6 km/h (1 Bft) S-SW 0,00 h 0,025 mm 0,0 UV-I 7 W/m 1,5 C 2,8 C 6,1 km/h (2 Bft) 99,01 %
23.03.2018 19:00 2,5 C 4,4 C 92 % 1006,1 hPa 0,0 l/m 5,3 km/h (1 Bft) S-SW 0,00 h 0,000 mm 0,0 UV-I 0 W/m 1,4 C 2,2 C 7,5 km/h (2 Bft) 97,38 %
23.03.2018 20:00 2,3 C 4,4 C 92 % 1006,1 hPa 0,0 l/m 4,7 km/h (1 Bft) W-SW 0,00 h 0,000 mm 0,0 UV-I 0 W/m 1,1 C 2,2 C 6,5 km/h (2 Bft) 97,32 %
23.03.2018 21:00 2,0 C 4,4 C 93 % 1005,9 hPa 0,0 l/m 4,1 km/h (1 Bft) S-SW 0,00 h 0,000 mm 0,0 UV-I 0 W/m 1,0 C 2,0 C 5,5 km/h (1 Bft) 97,24 %
23.03.2018 22:00 1,7 C 4,4 C 94 % 1005,7 hPa 0,0 l/m 4,9 km/h (1 Bft) S-SW 0,00 h 0,000 mm 0,0 UV-I 0 W/m 0,8 C 1,7 C 6,4 km/h (2 Bft) 99,28 %
23.03.2018 23:00 1,7 C 4,4 C 94 % 1005,5 hPa 0,0 l/m 3,6 km/h (1 Bft) S-SW 0,00 h 0,000 mm 0,0 UV-I 0 W/m 0,8 C 1,7 C 4,7 km/h (1 Bft) 98,61 %
24.03.2018 00:00 1,6 C 4,4 C 93 % 1005,0 hPa 0,0 l/m 4,2 km/h (1 Bft) S-SW 0,00 h 0,000 mm 0,0 UV-I 0 W/m 0,6 C 1,6 C 5,3 km/h (1 Bft) 97,69 %
24.03.2018 01:00 1,4 C 4,4 C 94 % 1004,7 hPa 0,0 l/m 3,2 km/h (1 Bft) S-SW 0,00 h 0,000 mm 0,0 UV-I 0 W/m 0,6 C 1,4 C 4,5 km/h (1 Bft) 97,40 %
24.03.2018 02:00 1,1 C 4,4 C 94 % 1004,4 hPa 0,0 l/m 0,8 km/h (0 Bft) S-SW 0,00 h 0,000 mm 0,0 UV-I 0 W/m 0,3 C 1,1 C 1,5 km/h (1 Bft) 97,88 %
24.03.2018 03:00 0,5 C 4,4 C 95 % 1004,1 hPa 0,0 l/m 1,3 km/h (1 Bft) SO 0,00 h 0,000 mm 0,0 UV-I 0 W/m -0,1 C 0,5 C 2,1 km/h (1 Bft) 99,55 %
24.03.2018 04:00 -0,5 C 4,4 C 96 % 1003,8 hPa 0,0 l/m 1,7 km/h (1 Bft) SO 0,00 h 0,000 mm 0,0 UV-I 0 W/m -1,1 C -0,5 C 2,6 km/h (1 Bft) 96,67 %
24.03.2018 05:00 -1,1 C 4,4 C 96 % 1003,5 hPa 0,0 l/m 0,6 km/h (0 Bft) SO 0,00 h 0,000 mm 0,0 UV-I 3 W/m -1,6 C -1,1 C 1,1 km/h (1 Bft) 97,87 %
24.03.2018 06:00 -1,2 C 4,4 C 97 % 1003,5 hPa 0,0 l/m 1,4 km/h (1 Bft) O 0,08 h 0,000 mm 0,0 UV-I 35 W/m -1,7 C -1,2 C 1,9 km/h (1 Bft) 98,35 %
24.03.2018 07:00 0,2 C 4,4 C 97 % 1003,4 hPa 0,0 l/m 5,0 km/h (1 Bft) O 0,63 h 0,000 mm 0,0 UV-I 139 W/m -0,3 C -0,1 C 7,3 km/h (2 Bft) 98,51 %
24.03.2018 08:00 1,6 C 4,4 C 95 % 1003,4 hPa 0,0 l/m 8,9 km/h (2 Bft) O-NO 0,52 h 0,051 mm 0,5 UV-I 210 W/m 0,9 C -0,8 C 12,4 km/h (3 Bft) 96,83 %
24.03.2018 09:00 3,2 C 4,4 C 92 % 1003,4 hPa 0,2 l/m 18,3 km/h (3 Bft) O-NO 0,43 h 0,076 mm 0,9 UV-I 306 W/m 2,1 C -4,6 C 23,4 km/h (4 Bft) 97,11 %
24.03.2018 10:00 5,4 C 4,4 C 83 % 1003,0 hPa 0,0 l/m 22,1 km/h (4 Bft) O-NO 0,98 h 0,127 mm 1,8 UV-I 655 W/m 2,7 C -3,4 C 28,6 km/h (4 Bft) 98,08 %
24.03.2018 11:00 6,5 C 4,4 C 68 % 1002,7 hPa 0,0 l/m 27,0 km/h (4 Bft) O-NO 0,95 h 0,279 mm 2,1 UV-I 688 W/m 0,9 C -3,4 C 34,8 km/h (5 Bft) 99,18 %
24.03.2018 12:00 7,1 C 4,4 C 62 % 1002,3 hPa 0,0 l/m 26,2 km/h (4 Bft) O-NO 0,98 h 0,356 mm 2,2 UV-I 673 W/m 0,3 C -2,4 C 33,5 km/h (5 Bft) 98,19 %
24.03.2018 13:00 7,8 C 4,4 C 62 % 1001,9 hPa 0,0 l/m 24,0 km/h (4 Bft) O-NO 1,00 h 0,381 mm 1,9 UV-I 628 W/m 1,0 C -0,8 C 30,7 km/h (5 Bft) 98,18 %
24.03.2018 14:00 8,4 C 4,4 C 62 % 1001,7 hPa 0,0 l/m 23,6 km/h (4 Bft) O-NO 1,00 h 0,356 mm 1,4 UV-I 527 W/m 1,5 C 0,1 C 29,8 km/h (5 Bft) 99,31 %
24.03.2018 15:00 8,7 C 4,4 C 60 % 1001,8 hPa 0,0 l/m 23,9 km/h (4 Bft) O-NO 1,00 h 0,330 mm 0,8 UV-I 394 W/m 1,5 C 0,5 C 30,8 km/h (5 Bft) 97,71 %
24.03.2018 16:00 8,6 C 4,4 C 59 % 1001,9 hPa 0,0 l/m 24,0 km/h (4 Bft) O-NO 1,00 h 0,279 mm 0,5 UV-I 241 W/m 1,0 C 0,2 C 30,7 km/h (5 Bft) 97,06 %
24.03.2018 17:00 7,8 C 4,4 C 59 % 1002,1 hPa 0,0 l/m 21,9 km/h (4 Bft) O-NO 0,77 h 0,203 mm 0,0 UV-I 83 W/m 0,4 C -0,0 C 27,9 km/h (4 Bft) 96,72 %
24.03.2018 18:00 6,6 C 4,4 C 63 % 1002,2 hPa 0,0 l/m 17,8 km/h (3 Bft) O-NO 0,13 h 0,127 mm 0,0 UV-I 11 W/m 0,0 C -0,2 C 22,6 km/h (4 Bft) 99,41 %
24.03.2018 19:00 5,5 C 4,4 C 65 % 1002,5 hPa 0,0 l/m 15,0 km/h (3 Bft) O-NO 0,00 h 0,077 mm 0,0 UV-I 0 W/m -0,6 C -0,2 C 19,8 km/h (3 Bft) 97,76 %
24.03.2018 20:00 4,2 C 4,4 C 69 % 1002,9 hPa 0,0 l/m 10,0 km/h (2 Bft) O-NO 0,00 h 0,050 mm 0,0 UV-I 0 W/m -1,0 C 1,4 C 14,3 km/h (3 Bft) 97,78 %
24.03.2018 21:00 3,0 C 4,4 C 73 % 1003,3 hPa 0,0 l/m 7,4 km/h (2 Bft) O-NO 0,00 h 0,026 mm 0,0 UV-I 0 W/m -1,3 C 2,0 C 10,7 km/h (2 Bft) 95,81 %
24.03.2018 22:00 2,3 C 4,4 C 75 % 1004,0 hPa 0,0 l/m 7,3 km/h (2 Bft) O-NO 0,00 h 0,025 mm 0,0 UV-I 0 W/m -1,6 C 1,2 C 10,3 km/h (2 Bft) 99,25 %
24.03.2018 23:00 1,7 C 4,4 C 77 % 1004,1 hPa 0,0 l/m 7,3 km/h (2 Bft) O 0,00 h 0,026 mm 0,0 UV-I 0 W/m -1,8 C 0,5 C 10,4 km/h (2 Bft) 97,52 %
25.03.2018 00:00 1,4 C 4,4 C 78 % 1004,1 hPa 0,0 l/m 9,0 km/h (2 Bft) O 0,00 h 0,000 mm 0,0 UV-I 0 W/m -1,9 C -1,0 C 12,3 km/h (3 Bft) 97,73 %
25.03.2018 01:00 0,7 C 4,4 C 82 % 1004,3 hPa 0,0 l/m 6,7 km/h (2 Bft) O 0,00 h 0,025 mm 0,0 UV-I 0 W/m -2,0 C -0,0 C 9,8 km/h (2 Bft) 96,63 %
25.03.2018 03:00 0,4 C 4,4 C 84 % 1004,4 hPa 0,0 l/m 9,4 km/h (2 Bft) O 0,00 h 0,000 mm 0,0 UV-I 0 W/m -1,9 C -2,5 C 13,1 km/h (3 Bft) 99,04 %
25.03.2018 04:00 -0,0 C 4,4 C 86 % 1004,6 hPa 0,0 l/m 9,7 km/h (2 Bft) O 0,00 h 0,026 mm 0,0 UV-I 0 W/m -2,0 C -3,1 C 13,6 km/h (3 Bft) 98,11 %
25.03.2018 05:00 -0,4 C 4,4 C 88 % 1005,2 hPa 0,0 l/m 8,0 km/h (2 Bft) O 0,00 h 0,000 mm 0,0 UV-I 0 W/m -2,1 C -2,3 C 11,5 km/h (2 Bft) 97,53 %
25.03.2018 06:00 -0,9 C 4,4 C 90 % 1005,6 hPa 0,0 l/m 7,4 km/h (2 Bft) O 0,00 h 0,000 mm 0,0 UV-I 6 W/m -2,3 C -2,1 C 10,8 km/h (2 Bft) 96,87 %
25.03.2018 07:00 -1,0 C 4,8 C 92 % 1005,9 hPa 0,0 l/m 8,0 km/h (2 Bft) O 0,78 h 0,000 mm 0,0 UV-I 67 W/m -2,1 C -2,7 C 11,3 km/h (2 Bft) 99,42 %
25.03.2018 08:00 0,1 C 5,0 C 90 % 1006,3 hPa 0,0 l/m 12,6 km/h (3 Bft) O 1,00 h 0,025 mm 0,0 UV-I 235 W/m -1,4 C -5,3 C 16,4 km/h (3 Bft) 98,01 %
25.03.2018 09:00 1,4 C 5,0 C 86 % 1006,8 hPa 0,0 l/m 11,3 km/h (2 Bft) O-NO 1,00 h 0,076 mm 0,7 UV-I 370 W/m -0,8 C -2,8 C 14,8 km/h (3 Bft) 96,96 %
25.03.2018 10:00 3,1 C 5,0 C 81 % 1007,2 hPa 0,0 l/m 9,1 km/h (2 Bft) O 1,00 h 0,153 mm 1,2 UV-I 517 W/m 0,1 C 0,6 C 12,6 km/h (3 Bft) 97,83 %
25.03.2018 11:00 5,0 C 5,0 C 76 % 1007,3 hPa 0,0 l/m 7,7 km/h (2 Bft) O-NO 1,00 h 0,203 mm 1,8 UV-I 617 W/m 1,2 C 3,6 C 11,5 km/h (2 Bft) 96,32 %
25.03.2018 12:00 6,7 C 5,0 C 71 % 1007,3 hPa 0,0 l/m 8,0 km/h (2 Bft) O-NO 1,00 h 0,254 mm 2,2 UV-I 679 W/m 1,9 C 5,2 C 11,4 km/h (2 Bft) 96,04 %
25.03.2018 13:00 8,2 C 5,0 C 66 % 1007,2 hPa 0,0 l/m 5,4 km/h (1 Bft) O 1,00 h 0,305 mm 2,3 UV-I 681 W/m 2,2 C 7,9 C 8,4 km/h (2 Bft) 97,05 %
25.03.2018 14:00 9,7 C 5,0 C 60 % 1006,9 hPa 0,0 l/m 4,6 km/h (1 Bft) O-NO 1,00 h 0,305 mm 2,0 UV-I 633 W/m 2,4 C 9,5 C 7,2 km/h (2 Bft) 95,71 %
25.03.2018 15:00 10,6 C 5,0 C 55 % 1006,7 hPa 0,0 l/m 3,9 km/h (1 Bft) O-NO 1,00 h 0,304 mm 1,5 UV-I 537 W/m 2,0 C 10,5 C 6,4 km/h (2 Bft) 96,37 %
25.03.2018 16:00 11,2 C 5,0 C 53 % 1006,4 hPa 0,0 l/m 4,7 km/h (1 Bft) O 1,00 h 0,280 mm 0,9 UV-I 401 W/m 1,8 C 10,9 C 7,0 km/h (2 Bft) 96,44 %
25.03.2018 17:00 11,1 C 5,0 C 53 % 1006,2 hPa 0,0 l/m 6,0 km/h (2 Bft) NO 1,00 h 0,228 mm 0,5 UV-I 242 W/m 1,9 C 10,6 C 8,3 km/h (2 Bft) 96,54 %
25.03.2018 18:00 10,2 C 5,0 C 59 % 1006,4 hPa 0,0 l/m 6,4 km/h (2 Bft) O-NO 1,00 h 0,153 mm 0,0 UV-I 91 W/m 2,4 C 9,8 C 8,3 km/h (2 Bft) 99,30 %
25.03.2018 19:00 8,0 C 5,0 C 64 % 1006,7 hPa 0,0 l/m 7,0 km/h (2 Bft) O 0,23 h 0,076 mm 0,0 UV-I 14 W/m 1,7 C 6,9 C 9,5 km/h (2 Bft) 97,62 %
25.03.2018 20:00 6,3 C 5,0 C 68 % 1007,3 hPa 0,0 l/m 14,9 km/h (3 Bft) O 0,00 h 0,025 mm 0,0 UV-I 0 W/m 1,0 C 0,8 C 20,3 km/h (4 Bft) 99,27 %
25.03.2018 21:00 4,8 C 5,0 C 72 % 1007,8 hPa 0,0 l/m 17,0 km/h (3 Bft) O 0,00 h 0,051 mm 0,0 UV-I 0 W/m 0,3 C -2,0 C 22,7 km/h (4 Bft) 96,68 %
25.03.2018 22:00 3,4 C 5,0 C 77 % 1008,0 hPa 0,0 l/m 13,8 km/h (3 Bft) O 0,00 h 0,051 mm 0,0 UV-I 0 W/m -0,3 C -2,0 C 18,6 km/h (3 Bft) 97,73 %
25.03.2018 23:00 2,3 C 5,0 C 80 % 1008,3 hPa 0,0 l/m 11,6 km/h (2 Bft) O-NO 0,00 h 0,025 mm 0,0 UV-I 0 W/m -0,7 C -1,9 C 15,0 km/h (3 Bft) 97,97 %
Min-Datum _ 19.03.18 19.03.18 22.03.18 24.03.18 - 19.03.18 - - - - - 19.03.18 19.03.18 19.03.18 22.03.18
_ Min-Zeit 05:40 00:00 16:13 14:41 - 18:11 - - - - - 06:06 04:45 18:11 18:29
Minimum _ -6,4 C 3,3 C 48 % 1001,5 hPa - 0,0 km/h (0 Bft) - - - - - -9,5 C -19,1 C 0,0 km/h (0 Bft) 70,83 %
Max-Datum _ 25.03.18 25.03.18 24.03.18 21.03.18 20.03.18 24.03.18 - 20.03.18 24.03.18 22.03.18 21.03.18 25.03.18 25.03.18 24.03.18 19.03.18
_ Max-Zeit 16:14 07:24 06:01 20:33 11:00 12:21 - 16:09 13:00 11:54 12:12 15:11 16:14 12:21 00:00
Maximum _ 11,4 C 5,0 C 97 % 1026,9 hPa 0,8 l/m 35,5 km/h
O-NO (5 Bft)
- 0,03 h 0,381 mm 2,3 UV-I 861 W/m 4,3 C 11,4 C 46,7 km/h
O-NO (6 Bft)
100,00 %
Durchschnitt _ 0,4 C 4,1 C 80 % 1012,3 hPa #2,8 l/m 8,8 km/h (2 Bft) W-SW #42:46 h #11,378 mm 1,2 UV-I 254 W/m -2,9 C -2,3 C 12,2 km/h (2 Bft) 97,53 %